EW2754 Beijing CN current weather conditions

sailwx.info

Wind from 113

Air temperature 2.2° C
Dewpoint -2.5° C

Last reported at 2018-Feb-19 16:00 UTC.
Time now 2018-Feb-19 16:25 UTC

Location: N 40°06' E 116°30'.
View on Google Maps.

See reports from other nearby stations

  
Tides and Currents Weather Stations Pressure Air Temp Water Temp Dewpoint Dewpoint Depression Visibility Wind Speed Wind Dir Waves Ship Positions
date/time (UTC)wind fromknots sea level pressurealtimeterstation pressurevisibilityair tempwater tempwave heightnotes
2018-Feb-19 16:10 112 2.2
2018-Feb-19 16:00 113 2.2
2018-Feb-19 15:50 115 2.2
2018-Feb-19 15:40 116 2.2
2018-Feb-19 15:30 117 2.2
2018-Feb-19 15:20 122 2.8
2018-Feb-19 15:10 123 2.8
2018-Feb-19 15:00 123 2.8
2018-Feb-19 14:50 123 2.8
2018-Feb-19 14:40 123 2.8
2018-Feb-19 14:30 123 2.8
2018-Feb-19 14:20 123 2.8
2018-Feb-19 14:10 123 2.8
2018-Feb-19 14:00 123 2.8
2018-Feb-19 13:50 122 2.8
2018-Feb-19 13:40 122 2.8
2018-Feb-19 13:30 122 2.8
2018-Feb-19 13:20 122 2.8
2018-Feb-19 13:10 122 2.8
2018-Feb-19 13:00 122 2.8
2018-Feb-19 12:50 122 2.8
2018-Feb-19 12:40 122 2.8
2018-Feb-19 12:30 121 2.8
2018-Feb-19 12:20 128 3.3
2018-Feb-19 12:10 128 3.3
2018-Feb-19 12:00 127 3.3
2018-Feb-19 11:50 127 3.3
2018-Feb-19 11:40 127 3.9
2018-Feb-19 11:30 127 3.9
2018-Feb-19 11:20 126 3.9
2018-Feb-19 11:10 127 3.9
2018-Feb-19 11:00 126 4.4
2018-Feb-19 10:50 127 4.4
2018-Feb-19 10:40 126 4.4
2018-Feb-19 10:30 127 4.4
2018-Feb-19 10:20 126 4.4
2018-Feb-19 10:10 127 4.4
2018-Feb-19 10:00 116 5.0
2018-Feb-19 09:50 114 5.0
2018-Feb-19 09:40 123 5.0
2018-Feb-19 09:30 123 5.6
2018-Feb-19 09:20 123 5.6
2018-Feb-19 09:10 123 5.6
2018-Feb-19 09:00 123 5.6
2018-Feb-19 08:50 123 5.6
2018-Feb-19 08:40 142 5.6
2018-Feb-19 08:30 136 5.6
2018-Feb-19 08:20 146 5.6
2018-Feb-19 08:10 151 5.6
2018-Feb-19 08:00 134 6.1
2018-Feb-19 07:50 134 5.6
2018-Feb-19 07:40 125 0 gusting 5 5.6
2018-Feb-19 07:30 120 0 gusting 4 6.1
2018-Feb-19 07:20 146 6.1
2018-Feb-19 07:10 145 6.1
2018-Feb-19 07:00 128 6.1
2018-Feb-19 06:50 115 0 gusting 4 6.1
2018-Feb-19 06:40 129 5.6
2018-Feb-19 06:30 175 0 gusting 6 5.6
2018-Feb-19 06:20 221 5.6
2018-Feb-19 06:10 161 5.6
2018-Feb-19 06:00 141 5.0
2018-Feb-19 05:50 167 5.0
2018-Feb-19 05:40 071 5.0
2018-Feb-19 05:30 096 5.0
2018-Feb-19 05:20 148 4.4
2018-Feb-19 05:10 094 4.4
2018-Feb-19 05:00 113 0 gusting 4 4.4
2018-Feb-19 04:50 088 4.4
2018-Feb-19 04:40 275 3.9
2018-Feb-19 04:30 130 3.9
2018-Feb-19 04:20 086 3.3
2018-Feb-19 04:10 088 3.3
2018-Feb-19 04:00 107 3.3
2018-Feb-19 03:50 146 3.3
2018-Feb-19 03:40 115 3.3
2018-Feb-19 03:30 126 2.8
2018-Feb-19 03:20 167 2.8
2018-Feb-19 03:10 136 0 gusting 4 2.8
2018-Feb-19 03:00 173 2.8
2018-Feb-19 02:50 186 2.2
2018-Feb-19 02:40 226 0 gusting 5 2.2
2018-Feb-19 02:30 199 1.7
2018-Feb-19 02:20 166 0 gusting 4 1.1
2018-Feb-19 02:10 205 1.1
2018-Feb-19 02:00 189 1.1
2018-Feb-19 01:50 231 0.6
2018-Feb-19 01:40 209 0.6
2018-Feb-19 01:30 311 0.6
2018-Feb-19 01:20 327 0.6
2018-Feb-19 01:10 329 -0.0
2018-Feb-19 01:00 210 -0.0
2018-Feb-19 00:50 208 -0.0
2018-Feb-19 00:40 208 -0.0
2018-Feb-19 00:30 206 -0.0
2018-Feb-19 00:20 207 -0.6
2018-Feb-19 00:10 207 -0.6
2018-Feb-19 00:00 207 -0.6
2018-Feb-18 23:50 207 -1.1
2018-Feb-18 23:40 207 -1.1
2018-Feb-18 23:30 207 -1.1
2018-Feb-18 23:20 207 -1.1
2018-Feb-18 23:10 207 -1.1
2018-Feb-18 23:00 205 -1.1
2018-Feb-18 22:50 205 -1.1
2018-Feb-18 22:40 206 -1.1
2018-Feb-18 22:30 200 -1.1
2018-Feb-18 22:20 146 -1.1
2018-Feb-18 22:10 145 -1.1
2018-Feb-18 22:00 145 -1.1
2018-Feb-18 21:50 144 -1.1
2018-Feb-18 21:40 144 -1.1
2018-Feb-18 21:30 144 -1.1
2018-Feb-18 21:20 144 -1.1
2018-Feb-18 21:10 144 -1.1
2018-Feb-18 21:00 144 -0.6
2018-Feb-18 20:50 144 -0.6
2018-Feb-18 20:40 144 -0.6
2018-Feb-18 20:30 144 -0.6
2018-Feb-18 20:20 144 -0.6
2018-Feb-18 20:10 138 -0.6
2018-Feb-18 20:00 134 -0.6
2018-Feb-18 19:50 126 -0.6
2018-Feb-18 19:40 124 -0.6
2018-Feb-18 19:30 096 -0.6
2018-Feb-18 19:20 096 -0.6
2018-Feb-18 19:10 096 -0.6
2018-Feb-18 19:00 096 -0.6
2018-Feb-18 18:50 096 -0.6
2018-Feb-18 18:40 096 -0.6
2018-Feb-18 18:30 096 -0.6
2018-Feb-18 18:20 096 -0.0
2018-Feb-18 18:10 097 -0.6
2018-Feb-18 18:00 105 -0.0
2018-Feb-18 17:50 105 -0.0
2018-Feb-18 17:40 105 -0.0
2018-Feb-18 17:30 107 -0.0
2018-Feb-18 17:20 109 -0.0
2018-Feb-18 17:10 109 -0.0
2018-Feb-18 17:00 112 0.6
2018-Feb-18 16:50 119 0.6
2018-Feb-18 16:40 117 1 gusting 6 0.6
2018-Feb-18 16:30 113 0 gusting 4 0.6
2018-Feb-18 16:20 114 0.6
2018-Feb-18 16:10 118 1.1
2018-Feb-18 16:00 117 1.1
2018-Feb-18 15:50 120 1 gusting 5 1.1
2018-Feb-18 15:40 103 0 gusting 6 1.7
2018-Feb-18 15:30 091 2 gusting 7 1.7
2018-Feb-18 15:20 119 2 gusting 8 2.2
2018-Feb-18 15:10 133 2 gusting 9 2.8
2018-Feb-18 15:00 126 3.3
2018-Feb-18 14:50 102 3.9
2018-Feb-18 14:40 102 3.9
2018-Feb-18 14:30 102 3.9
2018-Feb-18 14:20 102 3.9
2018-Feb-18 14:10 103 3.9
2018-Feb-18 14:01 102 3.9
2018-Feb-18 13:52 103 4.4
2018-Feb-18 13:40 107 4.4
2018-Feb-18 13:30 130 5.0
2018-Feb-18 13:20 137 5.0
2018-Feb-18 13:10 137 5.0
2018-Feb-18 13:00 138 5.0
2018-Feb-18 12:50 141 5.6
2018-Feb-18 12:40 145 5.6
2018-Feb-18 12:30 148 6.1
2018-Feb-18 12:20 153 6.1
2018-Feb-18 12:10 153 6.1
2018-Feb-18 12:00 153 6.1
2018-Feb-18 11:50 153 6.1
2018-Feb-18 11:40 153 6.1
2018-Feb-18 11:30 153 6.1
2018-Feb-18 11:20 153 6.1
2018-Feb-18 11:10 153 6.1
2018-Feb-18 11:00 153 6.7
2018-Feb-18 10:50 153 6.7
2018-Feb-18 10:40 153 6.7
2018-Feb-18 10:30 153 7.2
2018-Feb-18 10:20 153 7.2
2018-Feb-18 10:10 153 7.2
2018-Feb-18 10:00 153 7.2
2018-Feb-18 09:50 153 7.8
2018-Feb-18 09:40 153 7.8
2018-Feb-18 09:30 153 7.8
2018-Feb-18 09:20 153 7.8
2018-Feb-18 09:10 153 7.8
2018-Feb-18 09:00 158 8.3
2018-Feb-18 08:50 142 8.3
2018-Feb-18 08:40 165 8.3
2018-Feb-18 08:30 156 8.3
2018-Feb-18 08:20 163 8.3
2018-Feb-18 08:10 146 1 gusting 6 8.3
2018-Feb-18 08:00 130 8.3
2018-Feb-18 07:50 144 8.3
2018-Feb-18 07:40 155 0 gusting 6 8.9
2018-Feb-18 07:30 137 0 gusting 6 8.9
2018-Feb-18 07:20 199 8.9
2018-Feb-18 07:10 186 8.3
2018-Feb-18 07:00 160 8.9
2018-Feb-18 06:50 123 8.9
2018-Feb-18 06:40 113 8.9
2018-Feb-18 06:30 134 8.3
2018-Feb-18 06:20 114 8.3
2018-Feb-18 06:10 142 7.8
2018-Feb-18 06:00 059 7.8
2018-Feb-18 05:50 138 7.8
2018-Feb-18 05:40 146 7.2
2018-Feb-18 05:30 141 7.2
2018-Feb-18 05:20 088 6.7
2018-Feb-18 05:10 154 6.7
2018-Feb-18 05:00 132 6.1
2018-Feb-18 04:50 167 6.1
2018-Feb-18 04:40 076 5.6
2018-Feb-18 04:30 082 5.6
2018-Feb-18 04:20 070 5.6
2018-Feb-18 04:10 066 5.0
2018-Feb-18 04:00 107 5.0
2018-Feb-18 03:50 060 4.4
2018-Feb-18 03:40 076 3.9
2018-Feb-18 03:30 104 3.9
2018-Feb-18 03:20 020 3.9
2018-Feb-18 03:10 083 3.9
2018-Feb-18 03:00 074 3.3
2018-Feb-18 02:50 072 3.3
2018-Feb-18 02:40 070 3.3
2018-Feb-18 02:30 059 2.8
2018-Feb-18 02:20 051 2.2
2018-Feb-18 02:10 051 2.2
2018-Feb-18 02:00 055 1.7
2018-Feb-18 01:50 338 0.6
2018-Feb-18 01:40 013 0.6
2018-Feb-18 01:30 026 -0.0
2018-Feb-18 01:20 005 -0.6
2018-Feb-18 01:10 014 -1.1
2018-Feb-18 01:00 020 -1.1
2018-Feb-18 00:50 020 -1.7
2018-Feb-18 00:40 019 -2.2
2018-Feb-18 00:30 044 -2.2
2018-Feb-18 00:20 031 -2.2
2018-Feb-18 00:10 035 -2.2
2018-Feb-18 00:00 035 -2.8
2018-Feb-17 23:50 035 -2.8
2018-Feb-17 23:40 035 -2.8
2018-Feb-17 23:30 022 -2.8
2018-Feb-17 23:20 022 -2.8
2018-Feb-17 23:10 022 -2.8
2018-Feb-17 23:00 022 -2.8
2018-Feb-17 22:50 022 -2.8
2018-Feb-17 22:40 022 -2.8
2018-Feb-17 22:30 022 -2.2
2018-Feb-17 22:20 019 -2.2
2018-Feb-17 22:10 015 -2.2
2018-Feb-17 22:00 015 -2.2
2018-Feb-17 21:50 014 -2.2
2018-Feb-17 21:40 015 0 gusting 5 -2.2
2018-Feb-17 21:30 282 2 gusting 5 -2.8
2018-Feb-17 21:20 360 -2.8
2018-Feb-17 21:10 005 -2.8
2018-Feb-17 21:00 019 -2.8
2018-Feb-17 20:50 025 -2.8
2018-Feb-17 20:40 026 -2.8
2018-Feb-17 20:30 027 -2.8
2018-Feb-17 20:20 027 -3.3
2018-Feb-17 20:10 027 -2.8
2018-Feb-17 20:00 027 -2.8
2018-Feb-17 19:50 027 -2.2
2018-Feb-17 19:40 027 -2.2
2018-Feb-17 19:30 027 -2.2
2018-Feb-17 19:20 027 -2.2
2018-Feb-17 19:10 027 -1.7
2018-Feb-17 19:00 027 -1.7
2018-Feb-17 18:50 027 -1.7
2018-Feb-17 18:40 027 -1.7
2018-Feb-17 18:30 026 -1.7
2018-Feb-17 18:20 026 -1.1
2018-Feb-17 18:10 026 -1.1
2018-Feb-17 18:00 026 -1.1
2018-Feb-17 17:50 025 -1.1
2018-Feb-17 17:40 029 -1.1
2018-Feb-17 17:30 024 -1.1
2018-Feb-17 17:20 331 -1.1
2018-Feb-17 17:10 330 -1.1
2018-Feb-17 17:00 329 -1.1
2018-Feb-17 16:50 329 -1.1
2018-Feb-17 16:40 329 -1.1
2018-Feb-17 16:30 328 -1.1
2018-Feb-17 16:20 319 1 gusting 5 -1.1
2018-Feb-17 16:10 314 -1.1
2018-Feb-17 16:00 315 0 gusting 5 -1.1